STARLINK-11270, 60999

Orbit data source: Space-Track

STARLINK-11270, 60999 is a payload satellite owned by SpaceX/Seattle (US) in LEO that was launched on Thu, 05 Sep 2024 UTC via an FALCON 9 launch vehicle from the Air Force Eastern Test Range (AFETR). Payload-class satellites include a variety of spacecraft equipped with specific instruments for various scientific and technological missions. These include communications satellites like Starlink; space stations such as the ISS; scientific satellites like the Hubble; Earth observation satellites from companies like Planet Labs, Umbra, and HawkEye 360; GPS; miniature CubeSats for education and research; and military/defense satellites.

Loading next visibility...
Identifier
60999, 2024-158K
Orbit
LEO
Last TLE update
8 hours ago
Origin
Manufacturer
SpaceX/Seattle
Mission
Operational Commercial Communications
Bus & Motor
STARLINK V2M, Unknown motor
Mass
730 kg wet, ~700 kg dry
Launch date (UTC)
2024-09-05 (10 months ago)
Launch vehicle
FALCON 9
Launch site
Air Force Eastern Test Range (AFETR)
Object type
Payload
Rocket body
Debris
Shape & HBR
Box + 2 Pan, 29 m
Radar Cross Section
36.964 m², Large (>1 m²)

Expand to show TLE details & history

TLE from 8 hours ago
0 STARLINK-11270
1 60999U 24158K   25187.60766724 -.00000645  00000-0 -47022-6 0  9992
2 60999  53.1590  54.4338 0000742 110.3948 249.7150 15.69708347 48936
Epoch: 2025-07-06T14:35Z
TLE epoch observation values (Epoch: 2025-07-06T14:35:02.449Z)
Latitude
Longitude
-89.15533°
Altitude
360.82 km
Speed
7.694 km/s
True Right ascension
03h 37m 44s
True Declination
0° 00' 00"
Sunlit
Object was in daylight at epoch
Visualization orbit readout
Latitude
10.99655°
Longitude
80.80617°
Altitude
359.594 km
Speed
7.696 km/s
Apparent Right ascension
17h 59m 19s
Apparent Declination
-25° 02' 43"
Sunlit
Object is in full shadow
Visualization observer readout
Local Sidereal Time
10:55:58
Azimuth
100.786° ESE
Elevation
-27.47°
Doppler factor
1
Orbital elements
Apogee altitude
360.492 km
Perigee altitude
359.492 km
Semi-major axis
6,738.129 km
Eccentricity
0.00007
Inclination
53.159°
RAAN
54.4338°
Arg. of periapsis
110.3948°
True anomaly
Unknown
Mean anomaly
249.715°
Eccentric anomaly
Unknown
Mean motion
3.92405 °/min
Orbital period
91.74 mins
BSTAR
-4.7022e-7
Loading maneuver chart data...
Loading SW <> Apogee altitude chart data...
Loading historical data...
Loading historical data...
Loading historical data...
Loading historical data...
Loading historical data...
Loading historical data...
Loading historical data...

STARLINK-11270 Visibility forecast

Observer location: undefined°, undefined°

Span
Click to sort rows by Start time (UTC) header in descending order
Start Az.
Max El. time (UTC)
Max El. Az.
Max El.
End time (UTC)
End Az.
4 mins2025-07-07 00:13:45.365Z331.375° NNW2025-07-07 00:15:45.365Z26.986° NE29.019°2025-07-07 00:17:45.365Z92.775° ESE
4 mins2025-07-07 18:18:45.365Z270.132° WNW2025-07-07 18:19:45.365Z301.914° NW29.843°2025-07-07 18:22:45.365Z34.499° NE
|